Theta_e
304 303 303 303 303 303 303 304 304 304 304 305 304 304 305 306 306 297 293 293 291 289 289 290 291 287 289 287 283 284 283 284 282 280 280 281 281 284 285 285 284 283 281 281 283 285 282 296 296 290 293 292 295 293
302 302 302 302 303 303 304 304 304 304 304 304 304 304 304 305 306 302 294 294 294 291 287 293 293 293 292 290 287 285 283 282 285 282 286 286 282 284 286 281 290 284 285 281 287 285 292 297 296 297 296 294 294 294
301 302 302 303 304 304 304 304 305 305 304 304 305 306 306 306 306 301 297 297 294 291 288 284 286 292 294 294 297 287 286 291 286 290 283 282 282 288 281 281 288 291 293 289 288 291 295 297 297 299 298 296 296 296
302 303 304 304 305 305 305 305 305 304 304 305 305 305 305 305 304 303 295 291 293 292 284 284 293 291 296 292 293 294 292 290 291 290 287 283 283 284 284 287 285 288 289 290 292 295 297 298 299 296 296 298 297 296
302 303 303 303 303 303 305 306 304 304 304 305 305 305 304 304 304 299 292 292 296 292 284 284 289 289 290 292 294 293 292 289 286 285 287 285 284 283 283 284 282 291 290 288 287 295 296 296 299 300 298 298 298 296
302 303 303 303 303 303 304 305 305 305 304 304 304 304 303 303 302 291 287 293 298 296 287 282 286 288 293 296 295 291 290 291 289 287 285 285 288 286 278 278 289 294 298 296 294 299 300 300 300 301 298 298 297 296
302 302 302 303 303 303 303 303 304 304 304 304 304 304 304 304 293 288 285 290 298 297 289 282 283 290 297 296 293 293 294 292 291 289 286 284 287 290 284 281 289 295 298 297 298 299 296 299 297 300 298 299 299 297
301 301 301 302 302 302 303 303 303 304 304 304 305 305 305 304 298 294 294 300 300 293 291 283 281 284 294 290 289 289 289 291 289 289 287 285 287 286 281 287 293 297 299 298 297 300 299 300 298 298 298 297 295 294
301 301 302 302 302 302 303 303 303 303 304 304 305 303 295 292 288 293 302 301 298 292 285 285 282 280 293 291 291 290 290 287 291 288 287 290 286 283 287 292 294 297 298 299 301 301 298 297 297 296 296 295 293 292
301 301 302 302 302 302 302 302 302 303 303 302 295 290 285 290 302 301 292 288 290 291 291 285 288 284 290 289 288 287 290 287 283 289 292 285 285 292 296 297 298 299 300 299 294 294 295 295 295 295 294 293 293 292
301 301 301 301 302 302 303 302 302 302 298 290 286 283 291 299 291 292 288 285 288 285 288 287 288 286 291 287 286 289 285 286 282 287 286 285 285 292 297 298 300 299 299 297 296 296 296 296 295 294 294 294 293 292
301 301 301 302 302 303 303 302 302 294 290 292 294 296 292 289 285 283 280 283 283 282 288 287 286 286 287 291 289 291 287 286 282 292 283 282 289 295 298 299 299 300 298 298 299 297 297 297 296 295 294 293 291 291
301 301 302 302 303 303 303 302 302 302 299 293 291 288 284 286 279 279 280 280 281 285 289 289 287 286 288 291 290 289 284 283 290 284 283 286 292 295 297 298 299 300 299 299 298 298 298 298 298 297 296 296 294 291
301 301 302 302 303 303 302 303 303 300 292 287 286 275 280 280 283 285 285 285 288 289 289 290 288 287 290 288 290 285 288 290 281 281 283 289 292 295 298 299 299 297 297 298 298 298 299 299 298 299 298 298 295 292
301 302 302 301 302 303 302 303 303 294 290 286 285 276 279 285 287 289 289 287 289 289 290 290 288 288 288 288 289 287 285 282 283 283 287 292 294 294 295 296 296 296 296 297 299 300 301 300 300 298 298 298 297 294
301 301 297 301 302 302 302 299 295 293 291 288 286 283 284 283 284 286 286 286 289 288 292 291 288 287 287 287 285 284 282 282 285 289 292 294 292 292 292 295 296 298 297 298 299 301 301 301 300 298 299 299 299 295
300 292 300 300 301 301 300 293 292 291 289 287 284 286 285 286 286 286 287 289 292 289 288 290 284 285 287 284 284 285 284 288 290 293 295 296 295 296 299 299 300 299 298 298 299 300 298 301 300 300 298 299 301 297
290 293 298 300 300 296 293 293 290 288 286 286 283 285 287 289 287 289 292 294 292 291 291 288 291 286 282 283 284 287 293 293 295 297 298 298 298 300 301 298 299 298 298 299 299 300 300 299 298 297 298 300 298 295
294 296 300 301 299 292 290 291 288 283 285 286 286 287 290 290 290 294 296 296 295 294 292 290 287 285 285 287 289 293 294 295 294 296 297 300 301 301 301 301 300 297 297 298 297 296 297 299 300 298 298 300 296 291
300 300 301 302 298 290 289 287 290 285 284 286 286 287 290 290 291 294 295 295 294 292 289 287 287 288 290 292 295 294 294 296 295 294 296 299 301 301 301 301 300 298 299 299 299 297 299 300 299 298 298 296 294 289
296 296 300 295 293 291 288 285 286 286 286 284 287 287 290 292 290 292 292 294 292 290 285 292 294 295 297 297 297 297 296 297 295 297 297 298 300 301 301 302 302 300 300 300 299 300 299 299 298 298 297 297 294 291
293 300 292 295 290 290 286 288 286 286 285 285 287 289 288 287 287 289 292 290 290 291 293 294 294 294 296 297 298 298 299 299 299 299 298 299 300 299 300 301 302 301 301 302 301 300 300 300 297 297 295 294 293 290
297 294 291 291 284 280 282 289 285 285 283 285 288 288 288 287 288 291 287 291 291 295 296 294 295 296 296 300 300 299 300 298 297 297 300 300 300 301 300 301 302 301 301 302 303 303 300 295 299 300 299 296 293 290
297 290 286 285 285 281 290 286 287 286 286 286 288 287 288 287 290 287 285 289 293 294 292 293 294 295 297 297 297 297 299 300 297 297 297 297 297 296 296 296 297 297 297 300 301 301 300 300 298 300 302 300 293 289
280 280 282 275 285 285 285 285 286 285 285 287 286 287 286 289 284 284 285 287 288 288 289 293 294 293 291 293 297 297 298 297 297 296 297 296 295 295 294 294 293 294 295 296 297 300 299 299 300 301 300 300 296 292
274 284 280 285 284 283 283 282 283 284 283 283 283 284 286 281 282 282 285 287 287 288 289 290 291 293 293 295 295 295 297 300 296 293 292 294 293 291 289 289 288 289 293 293 293 294 297 299 300 301 302 300 290 292
279 285 287 289 286 284 280 284 285 283 284 283 283 283 278 279 282 287 292 290 289 291 292 291 291 294 292 293 296 298 297 298 296 294 294 292 291 291 290 288 287 289 291 293 292 292 292 294 299 300 300 298 296 295
286 290 283 287 282 282 282 284 284 284 283 285 285 282 280 277 278 288 290 292 292 293 293 293 293 293 293 295 294 294 294 295 296 294 293 292 291 290 290 291 291 286 290 292 291 292 292 292 297 302 302 299 296 294
285 287 287 284 283 282 283 283 284 286 287 285 281 280 280 285 289 290 293 292 291 292 292 292 293 293 294 294 295 293 292 292 289 286 285 284 284 286 289 290 290 291 291 291 289 288 290 291 298 301 300 297 297 295
284 286 283 285 279 280 283 287 286 288 288 287 289 287 286 289 292 292 292 291 290 290 291 293 292 292 291 291 291 289 289 288 288 286 283 283 284 286 287 288 289 290 291 291 291 293 290 296 295 300 299 298 297 296
287 287 282 281 283 285 288 289 289 289 288 287 289 285 283 287 291 293 291 291 291 291 290 290 290 292 294 294 294 289 287 288 288 288 286 286 286 286 287 288 289 290 290 290 290 290 290 293 293 292 293 294 295 294
282 283 285 280 281 287 288 287 286 283 284 284 283 288 289 287 285 289 292 292 292 294 292 293 292 290 293 293 291 290 287 288 287 288 288 286 286 287 287 288 289 290 289 288 289 288 288 289 289 289 291 294 294 293
288 288 286 286 282 286 287 286 285 285 286 284 286 288 287 286 282 288 293 293 292 292 291 289 289 289 290 290 290 290 286 288 287 283 281 282 282 284 286 286 288 289 288 288 289 288 287 286 286 286 286 290 292 293
Wind_Speed
6 7 9 10 11 12 13 14 14 14 14 14 15 16 16 16 11 3 3 3 3 3 9 8 11 11 5 3 4 5 6 2 3 1 2 3 3 3 4 4 5 7 4 4 2 5 10 3 2 12 7 2 10 8
6 8 9 11 12 13 13 14 14 14 14 14 15 15 15 15 12 2 4 1 2 4 9 13 17 16 17 22 10 5 5 2 4 2 2 3 4 4 3 4 7 3 2 5 6 7 4 5 5 5 6 9 6 13
7 9 10 12 12 13 14 14 14 13 13 14 15 16 13 12 13 0 4 3 2 4 8 2 9 9 5 12 12 4 4 6 5 2 3 3 4 2 3 3 5 3 3 3 6 4 4 8 6 4 5 9 8 14
7 9 11 11 12 12 14 14 13 11 12 13 13 13 11 11 10 7 3 2 2 3 5 6 4 13 9 6 7 13 15 1 3 2 2 3 3 2 3 4 3 5 4 3 5 5 4 8 9 7 17 16 11 10
8 9 11 12 13 14 15 12 11 11 12 12 13 12 11 11 11 5 3 3 3 2 4 8 13 6 7 5 8 12 14 7 3 2 3 3 2 2 3 2 5 6 6 4 4 2 3 5 6 12 16 13 6 6
7 9 11 12 13 15 15 13 12 12 13 14 14 13 13 11 7 4 3 2 2 3 4 5 5 6 10 12 10 1 5 4 3 4 4 4 4 3 2 4 6 2 2 2 1 2 8 12 10 8 7 10 10 7
7 9 11 12 14 15 14 14 15 15 17 17 18 17 15 11 2 2 5 5 3 1 3 5 5 5 4 5 3 3 1 2 3 2 3 3 3 5 3 4 6 4 10 8 3 5 12 10 7 9 6 10 14 11
8 10 10 12 13 15 15 15 17 18 20 21 19 17 13 8 3 4 4 9 3 2 2 4 6 6 5 3 4 2 1 0 1 3 1 3 1 1 4 6 7 1 9 14 11 6 5 8 4 11 12 13 13 10
8 8 10 12 14 15 15 17 19 21 23 22 17 5 4 3 1 4 5 4 1 2 2 2 4 5 5 2 2 3 1 2 2 3 2 3 2 4 5 8 3 2 5 4 6 6 6 12 12 11 13 11 12 7
7 9 11 12 14 15 16 18 20 22 23 12 5 4 4 3 10 4 4 3 0 1 2 3 2 4 3 2 3 3 2 1 2 2 3 3 1 6 5 4 4 2 4 4 13 11 15 12 11 10 9 7 7 6
8 10 11 13 14 16 16 17 19 21 9 5 5 2 4 10 3 2 2 3 2 3 2 4 4 7 3 3 3 1 3 2 3 2 3 3 2 5 6 6 4 6 4 5 11 9 11 12 11 9 7 6 7 7
9 10 12 14 15 16 16 17 17 5 2 4 5 5 3 4 4 3 3 2 2 3 3 3 5 3 5 2 2 2 3 3 3 5 4 4 5 6 4 6 7 6 14 13 14 12 9 9 8 7 7 6 6 6
10 12 13 14 15 16 16 18 17 15 8 1 0 2 4 4 7 6 5 4 4 3 4 4 6 2 4 2 3 3 3 3 3 5 3 3 7 7 4 5 6 7 13 13 10 7 8 7 7 6 7 5 7 6
12 13 14 15 15 15 18 19 17 7 3 3 4 7 4 5 3 4 5 6 5 5 8 8 3 2 2 3 2 3 3 3 4 4 4 3 5 6 6 4 7 7 8 7 7 6 7 6 3 5 6 8 7 6
13 14 13 7 15 17 20 19 12 2 2 3 3 3 3 5 4 6 6 3 6 4 3 3 2 2 2 3 3 3 3 5 5 3 3 4 10 6 5 2 6 6 5 4 3 4 3 4 4 3 4 6 6 6
16 9 2 13 17 20 21 6 2 1 1 2 0 3 4 3 6 4 4 5 3 3 2 0 3 4 4 4 4 6 4 7 3 3 4 6 5 4 1 3 4 4 4 3 2 4 4 5 4 4 4 4 5 7
10 1 9 17 19 20 9 2 3 2 1 4 4 3 4 4 5 5 4 6 5 3 3 3 5 4 4 4 4 4 4 3 5 5 4 6 5 2 1 0 2 4 3 1 2 3 1 2 5 4 3 4 4 6
1 5 17 17 13 6 4 2 2 2 3 2 4 5 3 3 4 4 6 5 5 4 3 5 3 5 5 5 3 3 3 3 2 5 6 7 7 6 4 5 4 1 1 2 2 1 2 2 1 2 3 3 5 2
8 11 18 16 4 2 3 4 3 2 3 3 4 3 2 2 2 4 9 9 4 2 2 3 5 3 3 2 3 4 5 5 3 2 1 3 5 7 7 6 4 5 6 5 6 3 3 3 2 2 3 3 4 2
11 11 8 7 5 2 3 4 2 2 2 4 2 4 2 2 3 2 5 8 5 4 5 5 2 2 2 4 4 3 4 3 3 2 4 7 7 9 9 7 5 4 4 4 4 6 5 5 4 2 4 4 5 3
8 5 6 3 2 3 2 2 3 2 3 3 3 2 3 2 4 6 5 5 4 4 2 3 7 7 8 5 4 3 4 1 2 3 2 8 6 5 3 6 5 4 5 5 4 5 6 3 3 3 4 4 4 5
4 7 3 3 3 3 1 2 2 3 1 3 4 3 2 3 3 3 4 6 4 3 3 5 7 6 8 11 8 6 5 6 6 5 7 5 5 5 6 5 6 7 5 4 4 4 4 5 3 4 5 3 5 4
6 4 3 3 4 4 6 1 2 2 1 4 4 3 3 3 3 2 4 4 3 4 4 4 8 5 4 6 9 8 7 6 5 4 4 4 4 4 5 7 7 8 8 7 4 3 4 5 4 3 3 5 5 4
3 2 2 2 2 3 2 3 1 2 3 3 2 3 3 3 4 4 3 2 3 5 5 9 8 9 9 13 9 7 6 4 4 7 5 5 7 6 5 6 7 8 7 5 6 5 4 3 5 1 2 3 4 4
5 4 4 4 2 2 3 5 4 4 2 3 1 1 3 2 3 3 1 4 4 4 5 7 7 6 4 4 7 6 8 5 7 8 7 6 4 6 8 6 5 5 8 8 9 8 7 5 4 3 2 3 6 6
3 2 2 2 2 2 1 3 3 3 2 2 2 2 2 3 3 1 2 2 2 2 4 3 4 5 5 4 4 6 6 4 5 6 4 6 6 5 4 4 6 7 8 6 7 9 10 9 7 3 1 1 5 8
3 2 2 1 3 2 3 2 2 1 3 3 3 3 3 3 1 1 2 2 2 3 2 3 2 2 1 3 3 3 4 5 4 3 2 3 4 4 4 5 7 6 7 7 7 7 8 9 6 4 4 2 4 4
2 3 2 3 2 1 0 2 2 2 2 2 1 3 2 6 5 3 3 3 3 3 3 2 2 1 2 2 2 3 4 4 4 4 4 4 3 5 6 5 5 9 6 7 6 7 6 7 6 3 2 1 0 3
2 3 2 0 2 2 1 1 1 2 2 2 2 1 3 3 3 2 2 2 2 2 3 3 4 3 3 4 5 5 4 4 5 8 10 6 5 5 7 6 7 7 7 8 10 7 8 6 3 3 3 2 2 2
3 1 2 1 2 2 3 3 2 2 2 3 2 2 3 2 3 1 1 2 2 1 2 2 2 2 2 1 2 4 4 3 3 3 2 3 4 5 5 6 7 8 8 8 9 11 10 6 6 5 4 2 2 3
1 2 2 1 2 3 4 2 1 1 1 0 0 3 3 3 3 2 1 1 1 1 2 3 4 3 3 3 1 3 0 2 1 2 2 1 3 4 4 5 5 6 7 8 8 9 9 7 7 6 6 6 4 4
2 1 1 2 4 4 1 1 1 0 1 1 2 1 1 2 2 3 2 1 3 3 3 2 3 4 4 1 3 3 4 3 2 1 4 3 3 4 4 5 5 6 7 7 7 8 9 8 7 9 8 8 5 5
2 2 2 2 3 2 2 2 1 1 1 1 2 4 4 4 4 4 3 2 3 3 2 2 1 3 4 4 1 3 3 2 3 3 4 4 4 4 4 4 5 6 7 7 8 8 9 8 7 8 9 10 7 6
Wind_Direction
19 9 0 354 351 347 343 342 341 337 334 334 335 333 331 333 327 6 260 205 159 266 279 253 267 262 276 258 280 314 342 333 335 276 246 268 255 274 296 267 201 195 182 207 99 205 255 275 277 202 218 111 148 136
17 3 353 348 346 340 335 334 332 331 332 331 330 326 323 324 324 335 287 278 167 224 247 276 267 252 245 247 253 213 230 246 264 355 12 343 331 318 315 266 339 290 206 207 182 215 263 299 269 295 178 139 137 129
8 359 352 346 339 336 334 330 328 326 328 330 327 328 326 320 327 319 282 305 321 273 284 339 281 281 218 228 208 219 241 213 244 205 212 212 242 281 326 291 325 351 18 294 350 344 356 339 7 78 52 95 106 126
5 358 350 348 348 342 337 334 335 333 332 331 336 338 344 345 341 329 268 200 184 273 274 289 293 283 272 228 195 208 237 216 155 168 215 221 232 194 241 250 207 215 326 299 284 262 238 43 30 73 80 75 68 92
2 355 353 352 353 351 345 342 342 335 329 324 325 330 332 333 330 321 220 235 227 286 299 290 313 264 285 257 229 226 220 203 160 148 214 210 261 154 248 271 245 177 211 231 232 288 284 98 64 60 78 93 111 154
356 355 353 353 349 346 347 344 339 331 325 319 319 318 319 322 357 10 348 297 206 141 319 302 288 289 311 328 327 245 142 143 160 150 211 222 245 122 264 255 261 212 139 173 288 324 122 125 93 119 139 171 172 105
359 357 354 352 353 350 349 342 336 328 321 319 314 310 307 301 111 172 205 220 168 13 278 290 279 267 276 275 322 8 128 158 158 194 220 211 229 157 231 238 270 245 95 126 99 85 72 117 161 185 116 91 93 86
2 356 351 352 350 350 346 341 336 333 327 320 314 306 300 292 359 266 261 268 187 207 249 289 278 330 348 316 307 346 3 224 221 195 230 199 157 181 244 253 282 245 129 154 185 194 156 161 119 99 103 102 84 81
6 357 352 356 354 348 342 338 340 335 326 321 318 351 61 48 29 244 280 81 131 149 273 276 294 301 340 286 287 313 309 278 239 222 246 152 158 217 256 289 179 296 132 124 156 214 137 106 90 92 95 90 97 90
348 348 346 343 345 345 344 343 340 332 329 342 27 27 338 244 303 325 2 2 47 262 247 261 256 275 283 306 288 287 242 274 276 238 167 181 137 270 355 33 45 247 306 139 115 108 91 86 94 89 90 86 95 107
334 332 330 331 335 338 336 336 335 337 8 15 10 309 269 312 34 56 319 360 328 270 236 254 241 294 288 271 296 281 316 319 298 21 336 47 43 5 20 61 21 321 139 112 84 79 96 111 116 115 102 103 100 101
332 326 323 323 325 327 330 332 328 3 263 260 287 287 307 12 17 9 316 310 349 284 282 278 289 256 288 271 282 298 323 333 5 327 47 17 344 13 37 360 23 98 95 100 108 110 117 121 116 102 101 110 111 124
332 327 325 320 319 323 324 326 322 313 321 23 210 321 40 331 15 4 328 313 316 290 259 293 314 308 318 314 293 338 328 13 339 27 32 6 307 339 5 84 65 91 97 103 108 114 130 127 124 121 129 135 148 144
328 326 319 313 315 321 324 322 323 336 51 34 12 2 68 340 293 243 265 263 259 244 282 295 286 300 304 295 338 322 347 294 45 41 11 330 342 0 30 53 105 93 102 115 125 133 125 119 140 148 154 164 148 141
328 320 314 315 325 325 324 323 324 74 70 32 40 350 276 250 271 259 265 271 249 248 255 282 305 249 284 306 4 320 23 46 30 23 312 329 321 338 4 48 104 108 116 121 131 112 143 160 169 199 148 161 150 142
333 332 328 334 330 328 326 340 44 74 48 34 69 303 274 337 298 302 280 271 281 286 279 206 340 330 16 358 19 7 23 30 27 322 308 316 333 350 278 172 140 142 157 174 224 173 167 174 187 221 162 188 172 164
338 281 320 333 332 326 331 27 18 349 336 339 311 253 261 245 261 289 306 315 317 340 2 8 35 5 308 12 36 12 18 300 311 324 355 360 328 55 61 192 170 179 155 181 14 21 129 186 134 133 164 243 194 178
277 289 315 323 339 335 329 42 22 9 347 331 345 313 314 305 314 317 329 336 353 357 6 18 343 21 35 17 352 321 310 300 50 32 336 334 2 22 12 16 2 29 221 56 74 14 350 135 91 217 231 197 90 43
268 287 294 303 314 33 355 331 62 19 278 275 283 299 290 294 309 328 345 353 354 4 61 15 47 8 6 282 0 349 19 7 3 325 42 345 337 21 34 24 30 60 40 26 22 19 343 328 312 235 147 125 94 58
308 302 309 329 118 56 358 319 67 71 301 277 301 335 334 320 324 326 322 351 347 16 27 32 6 282 266 274 261 248 264 269 298 317 17 28 25 28 23 20 23 25 74 55 42 33 17 9 14 71 104 108 99 71
334 302 351 85 64 83 160 320 327 222 289 317 305 343 304 17 48 2 334 344 12 39 32 344 341 331 322 300 292 244 264 241 326 26 3 29 358 343 2 27 2 354 53 23 21 6 16 354 303 126 119 108 118 124
274 338 15 353 43 358 348 238 193 277 349 264 330 343 13 3 355 357 313 20 27 333 346 335 327 327 352 16 10 13 24 54 25 30 39 24 15 352 21 340 8 15 11 6 355 5 352 355 44 88 89 102 97 95
329 28 7 20 34 41 261 58 20 300 328 307 347 26 358 9 340 353 59 22 342 281 305 309 319 310 8 16 30 26 31 39 37 20 21 16 10 11 20 19 22 26 11 0 337 336 2 353 5 41 105 106 120 119
352 46 17 328 130 269 317 312 272 318 316 12 50 356 18 347 344 54 16 331 280 310 341 352 3 10 23 28 24 12 2 2 44 48 21 37 47 19 15 19 18 20 3 333 360 3 6 350 341 355 179 140 152 137
59 320 88 312 260 347 350 345 340 24 352 354 68 26 318 9 73 64 357 297 325 327 334 351 4 10 7 349 19 10 23 30 60 58 24 30 29 28 21 8 358 7 3 2 353 339 333 337 326 296 224 162 165 156
75 278 106 339 353 58 338 342 342 327 316 6 353 303 31 68 60 42 296 288 275 286 310 353 341 338 360 13 19 12 3 3 64 63 19 32 40 41 5 356 344 338 354 339 343 340 336 336 325 306 29 160 172 151
38 332 297 329 127 95 8 301 265 48 27 24 322 357 56 68 82 272 279 258 264 275 289 293 258 308 291 325 354 18 11 15 49 89 90 56 49 26 7 356 344 317 318 323 337 333 327 332 346 17 34 56 128 152
282 28 14 317 14 101 161 308 357 34 350 307 33 29 139 181 218 246 227 263 254 300 302 336 9 329 319 13 340 37 26 6 26 31 7 6 21 32 358 337 321 316 315 320 319 319 315 314 312 321 6 161 215 160
342 329 344 256 1 359 246 179 261 261 209 107 126 261 248 223 236 246 275 273 286 17 32 9 340 352 20 38 39 32 27 17 39 25 18 3 355 334 343 337 337 339 334 326 318 306 303 296 322 21 26 82 92 135
286 354 31 337 116 243 252 176 227 255 206 184 184 8 352 304 257 234 310 358 27 304 273 243 280 325 309 351 120 48 17 26 47 94 49 350 304 300 322 338 340 338 335 341 345 348 0 30 18 4 351 2 48 43
300 295 64 345 262 239 231 236 289 318 17 329 174 149 221 255 309 282 247 225 264 291 351 336 330 321 340 340 52 128 21 323 16 62 80 337 335 341 340 338 338 338 349 353 360 6 9 13 14 355 351 360 58 75
19 122 176 297 283 286 7 142 243 161 305 27 286 199 11 46 291 289 262 86 13 349 338 337 340 317 327 78 84 93 117 153 229 355 28 25 29 12 355 351 354 1 5 5 9 8 8 14 14 8 0 19 45 50
203 220 217 265 311 288 261 112 233 265 229 251 250 200 189 174 217 255 296 181 194 218 259 291 62 93 70 58 114 143 162 207 278 23 92 81 83 42 19 360 2 1 5 13 18 14 11 4 5 3 4 2 2 17